Weather History for Spearfish, SD

Change the Weather History Date:

Thursday, February 7, 2013

  Actual Average (KEFC) Record (KEFC)
Temperature  
Mean Temperature 36 °F -  
Max Temperature 46 °F 37 °F 70 °F (1987)
Min Temperature 26 °F 12 °F -24 °F (1971)
Degree Days  
Heating Degree Days 29    
Moisture  
Dew Point 17 °F    
Average Humidity 48    
Maximum Humidity 69    
Minimum Humidity 23    
Precipitation  
Precipitation 0.00 in - - ()
Sea Level Pressure  
Sea Level Pressure 30.03 in    
Wind  
Wind Speed 8 mph (WNW)    
Max Wind Speed 15 mph    
Max Gust Speed 18 mph    
Visibility 10 miles    
Events      
Averages and records for this station are not official NWS values.
T = Trace of Precipitation, MM = Missing Value Source: NWS Daily Summary

Daily Weather History Graph

Daily Weather History Graph

Search for Another Location

Airport:

Trip Planner

Search our weather history database for the weather conditions in past years. The results will help you decide how hot, cold, wet, or windy it might be!

Date:

Astronomy

Feb. 07, 2013 Rise Set
Actual Time 8:05 AM CST 6:13 PM CST
Civil Twilight 7:35 AM CST 6:43 PM CST
Nautical Twilight 7:01 AM CST 7:18 PM CST
Astronomical Twilight 6:27 AM CST 7:52 PM CST
Moon 5:51 AM CST (2/7) 3:37 PM CST (2/7)
Length of Visible Light 11h 08m
Length of Day
10h 07m
Waning Crescent, 9% of the Moon is Illuminated
Feb 7
Waning Crescent
Feb 10
New
Feb 17
First Quarter
Feb 25
Full
Mar 4
Last Quarter

Hourly Weather History & Observations

Time (CST) Temp. Windchill Dew Point Humidity Pressure Visibility Wind Dir Wind Speed Gust Speed Precip Events Conditions
12:15 AM 32.0 °F 24.2 °F 19.4 °F 60% 30.02 in 10.0 mi West 9.2 mph - N/A   Clear
12:35 AM 32.0 °F 24.2 °F 19.4 °F 60% 30.02 in 10.0 mi West 9.2 mph - N/A   Clear
12:55 AM 32.0 °F 24.2 °F 19.4 °F 60% 30.02 in 10.0 mi West 9.2 mph - N/A   Clear
1:15 AM 32.0 °F 23.6 °F 19.4 °F 60% 30.02 in 10.0 mi West 10.4 mph - N/A   Clear
1:35 AM 33.8 °F 26.4 °F 19.4 °F 56% 30.03 in 10.0 mi WSW 9.2 mph - N/A   Clear
1:55 AM 33.8 °F 25.8 °F 17.6 °F 52% 30.03 in 10.0 mi WSW 10.4 mph - N/A   Clear
2:15 AM 32.0 °F 23.0 °F 17.6 °F 55% 30.03 in 10.0 mi WSW 11.5 mph - N/A   Clear
2:35 AM 32.0 °F 23.6 °F 17.6 °F 55% 30.04 in 10.0 mi WSW 10.4 mph - N/A   Clear
2:55 AM 32.0 °F 24.8 °F 17.6 °F 55% 30.04 in 10.0 mi West 8.1 mph - N/A   Clear
3:15 AM 32.0 °F 24.2 °F 17.6 °F 55% 30.04 in 10.0 mi West 9.2 mph - N/A   Clear
3:35 AM 32.0 °F 25.6 °F 17.6 °F 55% 30.04 in 10.0 mi West 6.9 mph - N/A   Clear
3:55 AM 28.4 °F - 17.6 °F 64% 30.04 in 10.0 mi Calm Calm - N/A   Clear
4:15 AM 28.4 °F 24.6 °F 17.6 °F 64% 30.04 in 10.0 mi West 3.5 mph - N/A   Clear
4:35 AM 26.6 °F 21.2 °F 17.6 °F 69% 30.04 in 10.0 mi NW 4.6 mph - N/A   Clear
4:55 AM 30.2 °F 24.3 °F 17.6 °F 60% 30.05 in 10.0 mi WNW 5.8 mph - N/A   Clear
5:15 AM 32.0 °F 23.6 °F 17.6 °F 55% 30.05 in 10.0 mi WSW 10.4 mph - N/A   Mostly Cloudy
5:35 AM 32.0 °F 24.2 °F 17.6 °F 55% 30.05 in 10.0 mi WSW 9.2 mph - N/A   Partly Cloudy
5:55 AM 32.0 °F 24.8 °F 17.6 °F 55% 30.06 in 10.0 mi West 8.1 mph - N/A   Clear
6:15 AM 32.0 °F 23.0 °F 17.6 °F 55% 30.06 in 10.0 mi WSW 11.5 mph - N/A   Clear
6:35 AM 30.2 °F 21.3 °F 17.6 °F 60% 30.06 in 10.0 mi WSW 10.4 mph - N/A   Clear
6:55 AM 30.2 °F 21.9 °F 17.6 °F 60% 30.06 in 10.0 mi West 9.2 mph - N/A   Clear
7:15 AM 30.2 °F 21.3 °F 15.8 °F 55% 30.06 in 10.0 mi West 10.4 mph - N/A   Clear
7:35 AM 28.4 °F 19.7 °F 15.8 °F 59% 30.06 in 10.0 mi WSW 9.2 mph - N/A   Clear
7:55 AM 28.4 °F 19.1 °F 15.8 °F 59% 30.07 in 10.0 mi WSW 10.4 mph - N/A   Clear
8:15 AM 28.4 °F 18.5 °F 15.8 °F 59% 30.07 in 10.0 mi WSW 11.5 mph - N/A   Clear
8:35 AM 32.0 °F 23.6 °F 15.8 °F 51% 30.08 in 10.0 mi WSW 10.4 mph - N/A   Clear
8:55 AM 32.0 °F 23.6 °F 17.6 °F 55% 30.08 in 10.0 mi West 10.4 mph - N/A   Clear
9:15 AM 33.8 °F 26.4 °F 17.6 °F 52% 30.08 in 10.0 mi West 9.2 mph - N/A   Clear
9:35 AM 35.6 °F 28.0 °F 17.6 °F 48% 30.08 in 10.0 mi West 10.4 mph - N/A   Clear
9:55 AM 37.4 °F 30.3 °F 17.6 °F 45% 30.08 in 10.0 mi WSW 10.4 mph - N/A   Clear
10:15 AM 39.2 °F 34.2 °F 15.8 °F 39% 30.09 in 10.0 mi WSW 6.9 mph - N/A   Clear
10:35 AM 39.2 °F 37.0 °F 15.8 °F 39% 30.08 in 10.0 mi WNW 3.5 mph - N/A   Clear
10:55 AM 41.0 °F 35.8 °F 17.6 °F 39% 30.09 in 10.0 mi NW 8.1 mph - N/A   Clear
11:15 AM 41.0 °F 34.3 °F 15.8 °F 36% 30.09 in 10.0 mi WNW 11.5 mph - N/A   Clear
11:35 AM 42.8 °F 37.0 °F 14.0 °F 31% 30.09 in 10.0 mi WNW 10.4 mph 17.3 mph N/A   Clear
11:55 AM 44.6 °F 37.8 °F 14.0 °F 29% 30.08 in 10.0 mi West 15.0 mph 18.4 mph N/A   Clear
12:15 PM 44.6 °F 38.4 °F 14.0 °F 29% 30.08 in 10.0 mi West 12.7 mph 17.3 mph N/A   Clear
12:35 PM 44.6 °F 39.7 °F 14.0 °F 29% 30.07 in 10.0 mi WSW 9.2 mph - N/A   Clear
12:55 PM 44.6 °F 40.2 °F 14.0 °F 29% 30.05 in 10.0 mi NW 8.1 mph - N/A   Clear
1:15 PM 44.6 °F - 14.0 °F 29% 30.05 in 10.0 mi Calm Calm - N/A   Clear
1:35 PM 44.6 °F 40.7 °F 12.2 °F 27% 30.04 in 10.0 mi WNW 6.9 mph - N/A   Clear
1:55 PM 46.4 °F 42.4 °F 12.2 °F 25% 30.03 in 10.0 mi NNW 8.1 mph - N/A   Clear
2:15 PM 46.4 °F 42.9 °F 14.0 °F 27% 30.03 in 10.0 mi North 6.9 mph - N/A   Clear
2:35 PM 46.4 °F 45.2 °F 12.2 °F 25% 30.01 in 10.0 mi NE 3.5 mph - N/A   Clear
2:55 PM 46.4 °F 45.2 °F 12.2 °F 25% 30.01 in 10.0 mi North 3.5 mph - N/A   Clear
3:15 PM 46.4 °F 45.2 °F 10.4 °F 23% 30.01 in 10.0 mi NE 3.5 mph - N/A   Clear
3:35 PM 46.4 °F 42.4 °F 14.0 °F 27% 30.01 in 10.0 mi NE 8.1 mph - N/A   Clear
3:55 PM 46.4 °F 43.5 °F 14.0 °F 27% 30.01 in 10.0 mi NNE 5.8 mph - N/A   Clear
4:15 PM 44.6 °F 40.2 °F 14.0 °F 29% 30.01 in 10.0 mi NE 8.1 mph - N/A   Clear
4:35 PM 41.0 °F 35.8 °F 14.0 °F 33% 30.01 in 10.0 mi ENE 8.1 mph - N/A   Clear
4:55 PM 41.0 °F 34.7 °F 17.6 °F 39% 30.01 in 10.0 mi East 10.4 mph - N/A   Clear
5:15 PM 37.4 °F 31.4 °F 19.4 °F 48% 30.01 in 10.0 mi East 8.1 mph - N/A   Clear
5:35 PM 37.4 °F 32.8 °F 19.4 °F 48% 30.02 in 10.0 mi ESE 5.8 mph - N/A   Clear
5:55 PM 35.6 °F 29.2 °F 19.4 °F 52% 30.02 in 10.0 mi ESE 8.1 mph - N/A   Clear
6:15 PM 33.8 °F 27.7 °F 19.4 °F 56% 30.01 in 10.0 mi East 6.9 mph - N/A   Clear
6:35 PM 32.0 °F 25.6 °F 19.4 °F 60% 30.01 in 10.0 mi ESE 6.9 mph - N/A   Clear
6:55 PM 35.6 °F 29.9 °F 19.4 °F 52% 30.00 in 10.0 mi SE 6.9 mph - N/A   Clear
7:15 PM 32.0 °F 25.6 °F 19.4 °F 60% 29.99 in 10.0 mi SE 6.9 mph - N/A   Clear
7:35 PM 32.0 °F 25.6 °F 19.4 °F 60% 29.99 in 10.0 mi SSE 6.9 mph - N/A   Clear
7:55 PM 32.0 °F 28.7 °F 17.6 °F 55% 29.98 in 10.0 mi ESE 3.5 mph - N/A   Clear
8:15 PM 32.0 °F 24.8 °F 19.4 °F 60% 29.97 in 10.0 mi East 8.1 mph - N/A   Clear
8:35 PM 33.8 °F 27.0 °F 17.6 °F 52% 29.96 in 10.0 mi ESE 8.1 mph - N/A   Clear
8:55 PM 35.6 °F 29.2 °F 17.6 °F 48% 29.95 in 10.0 mi ESE 8.1 mph - N/A   Clear
9:15 PM 35.6 °F 32.8 °F 17.6 °F 48% 29.95 in 10.0 mi East 3.5 mph - N/A   Clear
9:35 PM 33.8 °F 28.6 °F 17.6 °F 52% 29.94 in 10.0 mi NNE 5.8 mph - N/A   Clear
9:55 PM 35.6 °F 29.9 °F 17.6 °F 48% 29.94 in 10.0 mi NNE 6.9 mph - N/A   Clear
10:15 PM 35.6 °F 30.7 °F 17.6 °F 48% 29.94 in 10.0 mi NNE 5.8 mph - N/A   Clear
10:35 PM 35.6 °F 29.9 °F 17.6 °F 48% 29.93 in 10.0 mi NE 6.9 mph - N/A   Clear
10:55 PM 35.6 °F 32.8 °F 17.6 °F 48% 29.93 in 10.0 mi ENE 3.5 mph - N/A   Clear
11:15 PM 33.8 °F 28.6 °F 17.6 °F 52% 29.91 in 10.0 mi NE 5.8 mph - N/A   Clear
11:35 PM 33.8 °F 28.6 °F 17.6 °F 52% 29.91 in 10.0 mi NE 5.8 mph - N/A   Clear